sat.trackr.live / text

‹ back to catalog

STARLINK-11249 [DTC]

NORAD 60728 · 2024-152J

PAYLOAD ACTIVE UNKNOWN

§ Identity

Operator
Country
US
Launch date
2024-08-28
Launch site
AFETR
Launch vehicle
Mass (kg)
RCS (m²)

Purposes: comms

External: N2YO · Heavens-Above · Gunter

§ Orbital elements

Epoch: 2026-05-25T03:15:21.284064Z

Period
91.74 min
Inclination
53.1592°
Eccentricity
0.0001095
Mean motion
15.69702784 rev/d
Perigee alt
359.0 km
Apogee alt
360.5 km
Semi-major
6,737.9 km
B*
2.7005e-5
RAAN
99.2672°
Arg perigee
68.3961°
Mean anomaly
291.7173°
Rev number
10,084

§ Raw data

STARLINK-11249 [DTC]1 60728U 24152J   26145.13566301  .00002683  00000+0  27005-4 0  99962 60728  53.1592  99.2672 0001095  68.3961 291.7173 15.69702784100845

JSON: /api/v1/satellites/60728 · /tle

For live sub-satellite position, see the globe view (requires WebGL).

§ Visibility from observer

Set your observer location to see the next 7 days of passes ≥ 10°. The values pass through the URL so the page stays shareable.

No JS? Fill the form by hand. The geolocation button needs JavaScript.